This demonstration page uses our WeatherBlox Daily Observations layout. Learn more.

Left ArrowRight Arrow

38.80484, -77.04692

Hourly Observations for October 30, 2019

Temp ( °F °C ) Dew Point ( °F °C ) Humidity (%) Winds ( mph kmh ) Pressure ( in mb ) Visibility ( mi km ) Precip ( " mm )
12:52 am 00:52 Cloudy 61 16.1 56 13.3 84 84 E 3 6 30.27 1025 10 16 0.00 0.00
1:52 am 01:52 Cloudy 61 16.1 55 12.8 81 81 Calm 30.26 1025 10 16 0.00 0.00
2:52 am 02:52 Cloudy 60 15.6 55 12.8 84 84 ENE 7 11 30.25 1025 10 16 0.00 0.00
3:52 am 03:52 Cloudy 60 15.6 56 13.3 86 86 NE 5 7 30.25 1025 10 16 0.00 0.00
4:52 am 04:52 Cloudy 60 15.6 56 13.3 86 86 NE 5 7 30.25 1024 10 16 0.00 0.00
5:52 am 05:52 Cloudy 60 15.6 56 13.3 86 86 Calm 30.25 1024 10 16 0.00 0.00
6:52 am 06:52 Cloudy 61 16.1 55 12.8 81 81 Calm 30.26 1025 10 16 0.00 0.00
7:52 am 07:52 Cloudy 61 16.1 55 12.8 81 81 Calm 30.27 1025 10 16 0.00 0.00
8:52 am 08:52 Cloudy 61 16.1 56 13.3 84 84 NE 3 6 30.29 1026 10 16 0.00 0.00
9:23 am 09:23 Cloudy 62 16.7 57 13.9 84 84 Calm 30.28 1025 10 16 0.00 0.00
9:52 am 09:52 Cloudy 63 17.2 56 13.3 78 78 Calm 30.28 1026 10 16 0.00 0.00
10:52 am 10:52 Cloudy 64 17.8 56 13.3 75 75 S 6 9 30.27 1025 10 16 0.00 0.00
11:35 am 11:35 Partly Cloudy 64 17.8 56 13.3 75 75 VRB 3 6 30.27 1025 10 16 0.00 0.00
11:52 am 11:52 Cloudy 64 17.8 56 13.3 75 75 S 6 9 30.26 1025 10 16 0.00 0.00
12:52 pm 12:52 Cloudy 65 18.3 56 13.3 73 73 Calm 30.23 1024 10 16 0.00 0.00
1:52 pm 13:52 Cloudy 66 18.9 56 13.3 70 70 Calm 30.20 1023 10 16 0.00 0.00
2:52 pm 14:52 Cloudy 67 19.4 57 13.9 71 71 SSW 6 9 30.18 1022 10 16 0.00 0.00
3:52 pm 15:52 Cloudy 66 18.9 57 13.9 73 73 S 5 7 30.17 1022 10 16 0.00 0.00
4:52 pm 16:52 Cloudy 65 18.3 58 14.4 78 78 SE 8 13 30.17 1022 10 16 0.00 0.00
5:35 pm 17:35 Cloudy with Light Rain 65 18.3 57 13.9 76 76 SE 8 13 30.16 1021 10 16 0.00 0.00
5:52 pm 17:52 Cloudy with Light Rain 64 17.8 58 14.4 81 81 SE 9 15 30.16 1021 10 16 0.00 0.00
6:24 pm 18:24 Cloudy with Light Rain 62 16.7 58 14.4 86 86 SE 6 9 30.15 1021 6 10 0.02 0.51
6:52 pm 18:52 Cloudy with Light Rain 62 16.7 59 15 90 90 SE 3 6 30.15 1021 7 11 0.05 1.27
7:52 pm 19:52 Cloudy with Light Rain 61 16.1 59 15 93 93 SSE 5 7 30.14 1021 6 10 0.04 1.02
8:52 pm 20:52 Cloudy with Light Rain 61 16.1 59 15 93 93 SSE 6 9 30.11 1020 6 10 0.06 1.52
8:54 pm 20:54 Cloudy with Light Rain 61 16.1 59 15 93 93 SSE 6 9 30.12 1020 6 10 0.00 0.00
9:19 pm 21:19 Cloudy with Light Rain 61 16.1 59 15 93 93 SSE 5 7 30.12 1020 6 10 0.01 0.25
10:05 pm 22:05 Cloudy with Light Rain 61 16.1 60 15.6 97 97 S 6 9 30.11 1020 6 10 0.02 0.51
10:08 pm 22:08 Cloudy with Light Rain 61 16.1 60 15.6 97 97 S 7 11 30.11 1020 6 10 0.02 0.51
10:44 pm 22:44 Cloudy with Rain 61 16.1 60 15.6 97 97 S 5 7 30.10 1019 3 5 0.06 1.52
10:52 pm 22:52 Cloudy with Light Rain 61 16.1 60 15.6 97 97 S 3 6 30.10 1019 4 6 0.06 1.52
11:52 pm 23:52 Cloudy 62 16.7 60 15.6 93 93 SSE 5 7 30.06 1018 10 16 0.01 0.25

Powered by AerisWeather